#timestamp,LO_Frequency,Hit,StdDev 
1560178815.4,286046994.6,Y
1560178835.2,286046997.1,P
1560178855.0,286046996.8,P
1560178855.9,286046996.8,P
1560178875.8,286046995.4,Y
1560178895.6,286046998.9,P
1560178915.5,286046998.3,N
1560178935.3,286046997.0,P
1560178955.1,286046993.7,Y
1560178975.9,286046996.0,P
1560178995.7,286046993.1,P
1560179015.5,286046989.1,P
1560179035.4,286046987.8,Y
1560179055.2,286046991.7,P
1560179075.1,286046989.2,P
1560179076.0,286046989.2,P
1560179095.8,286046988.2,Y
1560179115.6,286046991.9,P
1560179135.5,286046990.6,P
1560179155.3,286046987.5,P
1560179175.2,286046987.8,Y
1560179195.9,286046997.9,P
1560179215.7,286046994.1,N
1560179235.6,286046995.0,N
1560179255.4,286046994.3,N
1560179275.2,286046992.7,N
1560179295.1,286046988.7,Y
1560179296.0,286046988.7,P
1560179315.8,286046995.9,N
1560179335.7,286046994.4,N
1560179355.5,286046993.1,N
1560179375.3,286046991.3,Y
1560179395.2,286046997.4,P
1560179415.0,286046995.9,N
1560179415.9,286046995.9,N
1560179435.8,286046995.0,Y
1560179455.6,286047001.1,P
1560179475.4,286047001.9,N
1560179495.3,286046998.5,N
1560179515.1,286046999.2,N
1560179535.8,286046996.7,N
1560179555.7,286046998.6,N
1560179575.5,286046997.2,N
1560179595.4,286046997.0,N
1560179615.2,286046996.9,N
1560179635.0,286046997.1,N
1560179635.9,286046997.1,N
1560179655.8,286046997.4,N
1560179675.6,286046999.6,N
1560179695.4,286046997.6,N
1560179715.3,286046994.9,Y
1560179735.1,286046997.0,P
1560179755.9,286046999.6,N
1560179775.7,286046999.2,N
1560179795.5,286046998.7,N
1560179815.4,286046999.4,N
1560179835.2,286046997.7,N
1560179855.0,286046997.7,N
1560179855.9,286046997.7,N
1560179875.8,286046996.3,Y
1560179895.6,286046997.6,P
1560179915.5,286046996.8,P
1560179935.3,286046998.8,N
1560179955.1,286046999.1,N
1560179975.9,286046999.1,N
1560179995.7,286046998.3,N
1560180015.5,286046997.5,Y
1560180035.4,286046998.3,P
1560180055.2,286046996.5,P
1560180075.1,286046997.5,N
1560180076.0,286046997.5,Y
1560180095.8,286046998.6,P
1560180115.6,286046999.2,N
1560180135.5,286046997.4,P
1560180155.3,286046997.2,Y
1560180175.2,286047000.8,P
1560180195.9,286046998.1,N
1560180215.7,286047001.0,N
1560180235.6,286047001.1,N
1560180255.4,286047001.1,N
1560180275.2,286047000.7,N
1560180295.1,286047000.7,N
1560180296.0,286047000.7,N
1560180315.8,286046998.5,N
1560180335.7,286047000.7,N
1560180355.5,286047000.5,N
1560180375.3,286047000.2,N
1560180395.2,286047000.1,N
1560180415.9,286047001.7,N
1560180435.7,286046999.9,N
1560180455.6,286047000.7,N
1560180475.4,286046998.1,N
1560180495.2,286047000.4,N
1560180515.1,286047001.2,N
1560180516.0,286047001.2,N
1560180535.8,286046998.9,N
1560180555.7,286047001.1,N
1560180575.5,286047001.1,N
1560180595.3,286047000.9,N
1560180615.2,286046998.8,N
1560180635.0,286046998.4,N
1560180635.9,286046998.4,N
1560180655.8,286046998.7,N
1560180675.6,286046998.9,N
1560180695.4,286046999.5,N
1560180715.3,286046998.3,N
1560180735.1,286046999.9,N
1560180755.8,286047001.2,N
1560180775.7,286046998.1,N
1560180795.5,286046998.2,N
1560180815.4,286047000.3,N
1560180835.2,286047002.0,N
1560180855.0,286047003.4,N
1560180855.9,286047003.4,N
1560180875.8,286047005.0,Y
1560180895.6,286047004.7,P
1560180915.4,286047007.2,P
1560180935.3,286047008.9,P
1560180955.1,286047008.6,N
1560180975.9,286047010.7,Y
1560180995.7,286047004.2,P
1560181015.5,286047004.3,P
1560181035.4,286047002.1,N
1560181055.2,286047002.9,N
1560181075.0,286047004.3,Y
1560181076.0,286047004.3,P
1560181095.8,286046997.3,P
1560181115.6,286046996.1,N
1560181135.5,286046995.6,N
1560181155.3,286046993.4,N
1560181175.1,286046994.1,N
1560181195.9,286046992.1,N
1560181245.7,286046990.6,E
1560181255.7,286046996.3,N
1560181275.5,286047000.2,P
1560181295.3,286046999.0,N
1560181315.2,286046998.8,N
1560181335.0,286046997.2,N
1560181335.9,286046997.2,N
1560181355.8,286046997.3,N
1560181375.6,286046997.0,N
1560181395.4,286046995.3,Y
1560181415.3,286046998.2,P
1560181435.1,286046999.4,P
1560181455.8,286046997.4,P
1560181475.7,286046998.3,N
1560181495.5,286046998.6,N
1560181515.4,286047000.6,N
1560181535.2,286047001.1,N
1560181555.0,286046999.1,N
1560181555.9,286046999.1,N
1560181575.8,286046997.7,N
1560181595.6,286046996.1,Y
1560181615.4,286046995.4,P
1560181635.3,286046995.2,N
1560181655.1,286046993.3,P
1560181675.9,286046995.9,N
1560181695.7,286046995.7,N
1560181715.5,286046993.7,Y
1560181735.4,286046998.9,P
1560181755.2,286047001.1,N
1560181775.0,286047002.6,N
1560181775.9,286047002.6,N
1560181795.8,286046999.8,N
1560181815.6,286047002.7,N
1560181835.5,286047002.2,N
1560181855.3,286047002.5,N
1560181875.1,286047002.4,N
1560181895.9,286047003.9,N
1560181915.7,286047004.0,N
1560181935.5,286047004.2,N
1560181955.4,286047004.4,N
1560181975.2,286047003.9,N
1560181995.1,286047003.1,N
1560181996.0,286047003.1,N
1560182015.8,286047005.6,N
1560182035.6,286047005.5,N
1560182055.5,286047002.9,N
1560182075.3,286047003.7,N
1560182095.1,286047003.0,N
1560182115.9,286047004.1,N
1560182135.7,286047006.0,N
1560182155.5,286047005.7,N
1560182175.4,286047007.5,Y
1560182195.2,286047001.6,P
1560182215.1,286047001.8,N
1560182216.0,286047001.8,N
1560182235.8,286047002.1,Y
1560182255.6,286047000.6,P
1560182275.5,286047002.7,P
1560182295.3,286047002.5,N
1560182315.2,286047002.8,Y
1560182335.9,286047001.2,P
1560182355.7,286047000.6,N
1560182375.6,286047000.8,N
1560182395.4,286046998.2,Y
